Location: Oklahoma City
(35.4680°N, 97.5160°W)
Time: 21:20:25
(UTC-06:00)

ISS - Visible Passes

Search period start: 16 January 2018 00:00
Search period end: 26 January 2018 00:00
Orbit: 401 x 406 km, 51.6° (Epoch: 17 January)

Date Brightness Start Highest point End Pass type
(mag) Time Alt. Az. Time Alt. Az. Time Alt. Az.
16 Jan -1.1 05:20:29 19° ENE 05:20:29 19° ENE 05:21:48 10° E visible
16 Jan -2.5 06:53:09 13° W 06:55:22 25° SW 06:58:07 10° S visible
17 Jan -3.6 06:03:14 54° SSW 06:03:14 54° SSW 06:06:17 10° SSE visible
18 Jan -0.7 05:13:23 14° ESE 05:13:23 14° ESE 05:13:54 10° SE visible
19 Jan -1.3 05:56:17 13° S 05:56:17 13° S 05:56:55 10° S visible
22 Jan -1.4 19:51:25 10° SW 19:52:32 20° SW 19:52:32 20° SW visible
23 Jan -2.8 18:59:22 10° SSW 19:02:14 29° SE 19:02:43 28° ESE visible
24 Jan -2.5 19:42:57 10° WSW 19:45:28 38° WNW 19:45:28 38° WNW visible
25 Jan -3.9 18:50:17 10° SW 18:53:32 87° SE 18:55:28 22° NE visible
